Wind_Speed
18 18 23 23 21 19 23 25 30 28 28 40 41 45 45 38 30 30 33 42 46 46 47 52 57 54 50 50 46 40 39 36 35 36 36 36 34 34 35 36 37 34 36 36
18 18 22 20 19 18 18 24 28 31 31 38 44 50 35 9 13 13 14 16 32 42 49 47 46 53 54 54 51 50 46 40 37 36 34 38 38 35 33 33 35 35 33 36
16 20 20 21 21 19 23 23 28 34 37 38 36 33 23 9 6 1 9 13 16 22 31 44 49 48 49 54 58 53 51 46 38 36 38 39 40 41 40 38 36 37 34 35
12 17 19 19 18 20 29 27 30 35 34 25 27 10 23 7 10 8 11 10 9 13 14 22 39 49 50 47 40 60 62 52 43 40 38 38 38 37 36 34 32 35 36 34
20 16 18 20 18 20 30 26 30 34 29 19 14 6 21 25 11 15 16 10 10 13 14 13 21 38 52 51 43 36 49 54 52 49 38 33 35 36 34 37 31 30 33 32
23 14 17 21 20 23 21 28 24 14 8 4 3 3 28 13 16 26 23 19 19 21 21 19 19 24 36 54 51 45 38 47 50 51 41 35 37 34 33 34 36 36 32 32
21 11 12 10 25 18 16 21 8 6 3 5 10 15 21 23 25 25 28 30 28 28 30 31 25 24 24 37 55 52 48 43 47 52 46 38 39 33 33 32 31 32 31 29
18 14 17 17 16 18 11 11 4 6 3 14 17 10 12 24 27 23 28 40 46 43 37 37 27 28 26 25 41 57 51 48 38 45 45 42 38 34 35 28 35 34 34 35
11 13 16 15 21 10 10 12 13 11 12 7 7 14 22 25 19 30 37 49 40 34 33 29 25 27 30 29 28 49 55 51 48 46 42 52 41 38 34 30 31 34 39 38
14 19 12 25 10 6 11 8 11 8 5 6 7 19 16 24 33 46 50 47 42 39 36 31 28 25 34 33 31 33 46 57 52 43 31 45 42 39 33 29 30 39 37 42
19 11 19 20 9 11 6 10 12 11 9 4 6 9 21 19 48 59 51 47 44 44 41 37 31 26 31 36 34 29 34 46 48 47 41 28 30 31 23 28 29 39 39 36
17 12 18 21 5 4 7 16 18 4 6 14 14 15 8 47 52 52 46 45 45 40 35 31 30 27 28 36 38 33 25 33 43 41 42 31 26 25 27 26 23 34 40 40
15 8 15 10 3 12 22 19 19 22 14 19 7 13 46 51 56 43 44 47 41 34 28 23 22 23 26 32 38 33 31 31 34 35 35 35 29 25 27 29 29 38 46 47
15 12 14 15 24 27 29 20 16 19 13 16 26 39 54 55 52 42 43 44 33 27 21 14 13 15 22 28 32 32 33 24 27 32 32 31 33 25 24 29 36 34 46 41
15 18 20 28 29 13 19 24 13 19 25 15 34 39 51 53 41 39 44 37 25 17 12 7 3 6 17 28 31 27 33 28 22 26 30 28 30 29 25 27 34 35 35 31
20 13 23 36 7 17 29 5 17 24 18 25 30 47 45 44 34 38 43 34 24 17 11 8 11 15 20 22 23 25 26 26 27 23 27 27 28 28 31 31 37 30 24 18
15 14 20 11 24 21 1 13 18 21 19 23 33 46 51 44 34 37 43 32 26 21 19 19 16 16 18 18 19 20 21 27 29 28 31 31 28 34 37 32 23 21 23 21
16 16 14 18 19 4 3 9 18 20 18 23 38 41 43 39 33 35 40 33 26 22 21 17 16 14 13 13 16 18 24 25 34 35 33 30 20 23 22 24 26 26 26 27
12 12 8 7 14 19 4 13 19 19 15 34 38 38 39 39 36 36 42 38 31 29 26 23 20 14 13 15 14 15 17 17 20 23 21 22 24 31 31 29 29 30 26 20
10 9 10 7 4 4 3 12 16 16 9 33 34 33 36 40 37 35 35 37 42 36 32 30 27 26 25 25 23 27 32 32 35 36 37 36 33 33 33 32 29 23 21 17
8 10 15 14 10 11 6 8 11 9 21 28 30 29 29 32 31 29 28 32 33 33 35 37 36 39 40 36 34 39 39 38 37 37 38 36 35 32 30 26 24 19 15 11
8 6 6 6 9 7 0 6 8 18 16 21 25 25 24 24 25 24 26 28 31 31 32 32 33 33 31 29 28 34 36 37 36 34 32 32 30 27 24 19 16 12 10 8
9 8 10 11 10 16 16 17 18 14 15 17 21 22 19 19 20 21 22 22 26 29 30 31 33 35 34 31 29 28 30 30 29 27 26 23 21 17 16 14 11 8 7 6
21 18 25 26 3 9 11 8 7 7 10 13 17 18 18 20 20 18 15 16 18 21 24 25 25 24 26 27 25 20 23 22 20 17 15 15 13 10 9 8 7 5 4 3
26 27 27 26 16 16 15 13 8 6 7 9 12 14 15 15 15 14 12 10 11 13 13 18 18 17 15 17 17 15 15 15 13 13 10 7 7 8 7 5 5 5 5 5
15 17 18 11 10 8 7 7 8 8 6 7 10 11 11 12 11 11 11 9 7 9 10 12 13 14 12 13 12 12 11 8 7 5 4 5 4 3 4 5 5 5 5 8
Wind_Direction
360 357 360 354 342 329 320 310 310 312 321 319 315 308 310 310 294 281 269 265 253 253 247 241 242 241 235 238 237 235 236 237 237 243 243 242 239 238 232 236 225 228 237 236
356 358 352 340 333 319 315 310 311 309 315 315 315 309 325 338 342 308 279 256 256 247 245 240 237 240 239 239 239 240 238 237 239 241 244 244 244 245 244 238 241 241 242 243
358 351 347 335 330 316 312 314 316 309 314 311 313 312 328 332 305 23 340 324 306 283 252 243 235 230 234 241 241 240 241 240 236 238 239 241 243 243 242 238 236 239 242 246
352 351 347 338 324 327 318 329 314 310 312 307 307 304 329 332 319 327 336 4 336 327 292 262 239 230 227 225 233 243 242 241 239 237 238 241 246 249 247 245 249 242 240 240
347 347 347 338 328 329 313 314 315 309 303 305 312 245 299 312 300 298 324 323 349 349 327 291 263 239 227 229 223 223 233 239 235 235 235 240 242 244 247 246 224 224 238 242
341 338 348 333 332 325 312 324 329 306 312 287 292 297 304 325 310 309 311 304 302 320 315 312 278 263 241 227 223 227 227 227 230 233 229 234 239 238 242 246 235 230 231 238
350 335 333 329 327 346 327 354 335 347 348 235 326 304 269 305 306 309 309 309 302 295 303 301 291 262 252 237 225 225 225 232 228 231 229 230 237 233 238 243 239 237 236 238
342 334 339 331 337 328 352 6 334 307 300 296 304 232 302 310 308 303 305 309 302 295 292 296 278 264 252 252 231 224 221 226 229 235 230 231 234 227 233 236 243 235 237 240
336 303 339 346 329 320 332 333 327 275 274 277 257 275 293 289 293 292 299 313 310 300 288 284 275 262 241 245 237 227 222 225 230 231 238 225 226 225 224 230 237 236 240 243
325 302 325 344 338 320 325 333 327 311 307 295 267 284 286 307 318 319 322 319 313 306 297 286 276 257 238 232 238 227 225 224 231 236 231 231 227 225 224 227 239 245 242 243
324 300 309 338 323 314 343 327 323 304 258 285 313 287 314 323 326 333 324 321 316 306 299 290 277 260 239 226 226 233 221 226 231 234 232 230 225 231 225 224 234 249 250 242
326 299 297 332 321 273 326 320 325 284 312 283 265 282 333 329 331 329 325 325 321 312 302 289 274 257 239 226 219 218 218 220 230 231 236 224 228 221 219 240 260 257 244 248
320 302 311 347 332 317 319 322 327 317 306 269 263 285 331 338 334 332 332 331 324 316 309 295 275 254 229 221 214 214 213 221 227 225 225 228 232 228 242 250 256 258 244 233
320 293 289 265 295 304 303 327 328 318 286 290 290 312 338 339 338 333 336 336 331 325 322 308 282 246 211 208 204 209 208 206 224 216 214 215 233 230 235 241 250 260 236 228
318 304 310 311 315 301 305 316 328 323 329 294 322 326 339 339 341 336 344 344 343 341 340 321 236 188 181 179 189 204 206 213 215 205 202 209 217 220 232 237 250 240 229 216
312 301 317 324 312 311 311 348 339 331 337 339 333 335 346 351 347 353 356 357 2 8 18 60 107 137 143 164 178 191 199 206 195 195 209 204 207 218 220 239 239 222 206 174
310 316 326 300 322 320 84 356 346 346 1 341 342 342 347 356 -0 359 5 13 18 17 37 63 87 118 135 148 165 183 190 191 196 202 204 201 222 219 220 224 204 177 162 157
290 308 312 301 338 357 321 350 346 350 355 347 348 348 349 1 16 12 17 25 33 41 49 68 76 95 129 147 161 188 193 200 197 195 199 204 210 203 172 160 152 148 149 154
289 300 307 304 314 297 47 347 353 350 2 352 352 355 356 10 26 31 32 36 44 51 55 62 77 86 104 126 124 140 165 167 173 181 173 151 143 141 140 141 143 150 153 154
290 287 269 296 290 246 322 342 351 347 346 350 356 357 359 9 28 34 42 47 53 58 67 71 79 92 93 92 99 113 113 122 125 124 125 128 131 133 136 143 149 151 149 147
274 276 260 258 259 279 294 329 357 9 328 349 359 360 4 18 25 36 45 50 57 63 64 69 76 82 87 93 104 106 109 113 117 124 126 128 131 137 144 144 143 142 134 148
272 268 254 223 231 287 107 326 350 335 337 348 1 5 11 22 33 41 47 58 63 69 74 77 80 81 86 95 105 110 114 116 118 120 124 134 141 139 138 134 127 137 153 153
257 256 262 250 268 284 288 288 299 319 328 345 1 5 13 26 39 45 47 55 64 71 74 79 86 91 93 94 95 102 107 114 123 132 135 135 131 131 132 138 147 154 162 172
290 283 271 282 296 290 286 297 278 285 318 337 355 3 14 25 31 39 50 55 63 72 72 75 76 81 90 97 98 103 106 110 115 118 120 126 133 135 143 145 154 170 192 209
295 286 283 284 297 282 271 251 236 255 298 325 348 0 16 24 35 40 43 57 76 75 91 88 88 85 95 102 105 109 118 122 125 126 125 130 142 148 155 174 189 215 214 235
307 305 287 303 290 292 270 219 212 238 281 318 347 355 8 15 27 39 50 57 71 107 106 100 89 91 88 99 98 97 96 103 116 122 133 142 156 190 224 227 240 247 273 296
Height
3082 3080 3076 3073 3071 3069 3065 3062 3056 3054 3050 3041 3035 3025 3020 3019 3017 3013 3014 3016 3018 3019 3024 3028 3032 3038 3043 3046 3050 3054 3058 3063 3066 3069 3073 3074 3077 3081 3085 3087 3091 3093 3096 3099
3082 3078 3075 3073 3070 3067 3065 3060 3054 3048 3046 3040 3029 3017 3017 3013 3010 3005 3004 3005 3003 3005 3007 3014 3020 3025 3029 3035 3040 3045 3050 3054 3059 3062 3067 3068 3071 3074 3078 3081 3083 3086 3088 3092
3078 3078 3074 3070 3067 3064 3062 3057 3051 3045 3038 3035 3024 3014 3010 3009 3007 3005 3004 3001 2999 2996 2998 3001 3006 3010 3018 3022 3029 3033 3041 3046 3051 3055 3056 3061 3065 3067 3066 3071 3075 3079 3082 3086
3078 3075 3072 3069 3066 3063 3055 3053 3048 3041 3037 3030 3027 3018 3007 3006 3007 3004 3002 2999 2996 2994 2992 2993 2994 3000 3005 3007 3017 3023 3030 3036 3042 3044 3048 3053 3058 3060 3062 3064 3069 3073 3076 3079
3079 3074 3071 3068 3065 3062 3055 3049 3044 3037 3032 3029 3023 3023 3003 3003 3002 3001 2999 2997 2994 2991 2989 2988 2988 2989 2994 2999 3006 3010 3017 3024 3031 3033 3040 3046 3050 3052 3056 3053 3056 3063 3067 3072
3076 3072 3069 3065 3062 3059 3052 3047 3038 3033 3031 3030 3022 3023 3000 3001 3000 2997 2995 2993 2990 2987 2985 2984 2982 2981 2983 2987 2996 3003 3006 3011 3018 3023 3031 3037 3039 3045 3049 3051 3054 3051 3061 3065
3074 3071 3068 3064 3059 3056 3054 3047 3040 3039 3034 3029 3023 3020 3003 3001 2997 2994 2990 2988 2985 2981 2978 2976 2975 2974 2975 2976 2984 2991 2997 3001 3007 3013 3023 3028 3030 3038 3042 3045 3048 3051 3054 3058
3074 3068 3066 3063 3059 3055 3052 3052 3053 3045 3040 3023 3018 3012 3001 2999 2995 2992 2988 2983 2976 2972 2968 2967 2966 2965 2967 2968 2972 2980 2988 2993 2997 3004 3015 3019 3026 3030 3034 3038 3042 3045 3048 3050
3077 3068 3065 3061 3056 3055 3053 3052 3051 3044 3034 3028 3012 3005 3001 2995 2992 2986 2980 2972 2966 2962 2959 2956 2955 2955 2957 2961 2963 2969 2978 2985 2990 2996 3002 3008 3016 3021 3027 3031 3035 3038 3041 3043
3078 3068 3061 3059 3056 3055 3053 3053 3050 3046 3038 3028 3009 3002 2998 2993 2985 2980 2969 2960 2954 2950 2947 2945 2943 2944 2946 2950 2957 2960 2968 2976 2983 2991 2993 3000 3002 3012 3019 3024 3029 3029 3034 3036
3076 3073 3061 3059 3056 3053 3053 3051 3050 3046 3040 3031 3015 3000 2996 2992 2984 2971 2960 2952 2944 2936 2932 2930 2930 2931 2934 2940 2946 2955 2960 2968 2975 2982 2988 2993 2996 3002 3010 3017 3020 3023 3027 3030
3074 3070 3060 3056 3054 3052 3052 3049 3047 3044 3039 3033 3025 3000 2995 2989 2979 2967 2953 2943 2934 2925 2919 2916 2915 2919 2924 2930 2938 2946 2954 2960 2965 2974 2982 2989 2994 2999 3005 3009 3013 3018 3020 3023
3073 3068 3061 3055 3055 3052 3049 3047 3044 3042 3036 3027 3022 3001 2995 2984 2972 2960 2947 2936 2924 2915 2909 2906 2905 2907 2913 2921 2930 2940 2946 2953 2960 2969 2977 2984 2989 2996 2998 3003 3009 3011 3013 3014
3070 3067 3065 3061 3055 3053 3045 3043 3042 3039 3034 3023 3015 3000 2987 2976 2963 2952 2943 2930 2917 2908 2903 2900 2898 2899 2905 2914 2925 2934 2942 2948 2955 2962 2971 2979 2985 2991 2997 2999 3003 3005 3009 3013
3068 3063 3060 3053 3049 3046 3043 3039 3038 3035 3029 3023 3011 3001 2989 2976 2962 2951 2939 2926 2915 2908 2902 2899 2897 2898 2904 2912 2922 2931 2939 2946 2953 2959 2966 2975 2981 2988 2992 2996 2999 3001 3006 3010
3065 3061 3056 3046 3045 3043 3037 3036 3035 3030 3025 3020 3012 2999 2990 2975 2963 2951 2938 2925 2915 2909 2904 2900 2899 2902 2907 2915 2922 2930 2937 2942 2950 2956 2964 2970 2977 2983 2986 2992 2995 2999 3007 3010
3062 3059 3054 3045 3043 3037 3037 3035 3033 3028 3025 3020 3012 3000 2983 2973 2963 2951 2940 2928 2919 2914 2908 2905 2905 2908 2913 2918 2924 2929 2936 2941 2947 2954 2960 2966 2972 2978 2982 2988 2994 3000 3003 3009
3060 3058 3055 3047 3042 3041 3036 3034 3031 3027 3024 3020 3012 3000 2988 2978 2967 2957 2945 2934 2926 2921 2917 2915 2914 2916 2918 2922 2925 2929 2931 2936 2942 2950 2957 2962 2969 2976 2980 2987 2996 3001 3007 3012
3057 3057 3055 3051 3047 3039 3035 3033 3030 3027 3024 3019 3010 3001 2992 2983 2972 2964 2952 2943 2935 2930 2926 2924 2924 2923 2924 2925 2928 2930 2933 2935 2943 2950 2957 2962 2972 2977 2984 2992 2998 3004 3009 3014
3054 3054 3055 3052 3050 3043 3034 3032 3030 3026 3024 3019 3013 3005 2994 2986 2977 2970 2964 2957 2949 2943 2938 2935 2933 2933 2928 2931 2935 2937 2940 2947 2952 2959 2966 2972 2979 2985 2990 2997 3003 3008 3012 3014
3051 3049 3048 3049 3047 3034 3033 3031 3030 3029 3031 3021 3015 3008 3000 2992 2986 2981 2975 2969 2963 2958 2954 2950 2948 2945 2945 2948 2953 2952 2955 2960 2965 2971 2974 2980 2986 2992 2998 3002 3006 3010 3012 3015
3049 3047 3044 3043 3042 3034 3032 3032 3032 3031 3027 3023 3018 3013 3006 3000 2995 2990 2985 2980 2976 2971 2967 2965 2963 2961 2962 2965 2969 2967 2969 2973 2977 2982 2987 2992 2997 3000 3004 3007 3009 3012 3015 3016
3044 3043 3040 3040 3032 3029 3030 3029 3029 3029 3027 3024 3020 3016 3011 3006 3001 2997 2994 2990 2987 2983 2981 2980 2977 2976 2976 2979 2981 2983 2984 2986 2990 2994 2997 3000 3002 3005 3006 3010 3012 3014 3016 3017
3036 3036 3031 3030 3027 3025 3025 3025 3026 3027 3026 3023 3021 3018 3014 3008 3005 3002 3000 2998 2996 2993 2991 2990 2990 2990 2989 2989 2992 2995 2995 2997 2999 3002 3003 3005 3007 3009 3011 3011 3012 3014 3016 3017
3031 3027 3024 3019 3020 3020 3020 3021 3023 3025 3025 3024 3021 3018 3015 3012 3010 3007 3006 3004 3003 3001 3000 2999 2999 2999 3000 3001 3002 3003 3003 3004 3006 3007 3008 3009 3010 3011 3011 3012 3013 3014 3014 3015
3023 3021 3018 3016 3017 3017 3018 3019 3020 3022 3023 3022 3021 3020 3017 3015 3013 3011 3009 3008 3007 3006 3005 3005 3005 3005 3005 3005 3006 3007 3007 3008 3009 3009 3010 3011 3012 3013 3013 3014 3015 3015 3014 3013